Orbital Elements at Epoch 2459000.5 (2020-May-31.0) TDB
Reference: JPL 35 (heliocentric ecliptic J2000)
Element | Value | Uncertainty (1-sigma) | Units |
e | .1383567018483468 | 3.3687e-08 | |
a | 2.689770180214681 | 1.1734e-08 | au |
q | 2.317622449350144 | 9.1492e-08 | au |
i | 13.16088570292741 | 4.3117e-06 | deg |
node | 201.2416399899783 | 1.3302e-05 | deg |
peri | 37.38909215487239 | 1.9022e-05 | deg |
M | 110.9998176057203 | 1.5145e-05 | deg |
tp | 2458503.689286024938 (2019-Jan-20.18928602) | 6.6281e-05 | TDB |
period | 1611.280638913456 4.41 | 1.0544e-05 2.887e-08 | d yr |
n | .2234247661802483 | 1.462e-09 | deg/d |
Q | 3.061917911079218 | 1.3357e-08 | au |
|
| | Orbit Determination Parameters
Additional Information
|